Location: McCloud Nature Park
(39.8272°N, 86.6824°W)
Time: 08:48:28
(UTC-05:00)

Amateur Radio Satellites - All Passes

Search period start: 27 September 2016 08:18
Search period end: 28 September 2016 08:18
Location: McCloud Nature Park, 39.8272°N, 86.6824°W

Satellite Date Start Highest point End Downlink Frequencies (MHz)
Time Altitude Azimuth
CUSAT 1 27 Sep 08:22:48 08:26:07 14° 284° (WNW) 08:29:14 437.405
DOVE 4 27 Sep 08:24:16 08:27:53 28° 290° (WNW) 08:31:25 437.250
CUTE 1.7 + AOD 2 27 Sep 08:35:38 08:39:55 67° 100° (E) 08:44:11 437.475
NOAA 15 27 Sep 08:36:08 08:39:11 16° 299° (WNW) 08:42:14 137.62
CANX-2 27 Sep 08:36:41 08:41:01 81° 102° (ESE) 08:45:19 2200.000
STRAND 1 27 Sep 08:36:44 08:39:56 17° 268° (W) 08:43:10 437.568
SEEDS 27 Sep 08:38:43 08:42:52 49° 99° (E) 08:46:59 437.485
BEESAT 3 27 Sep 08:41:07 08:42:15 11° 41° (NE) 08:43:23 437.485
Cubesat XI-IV 27 Sep 08:49:25 08:52:20 15° 299° (WNW) 08:55:16 437.490
CUTE-I 27 Sep 08:49:55 08:52:45 15° 300° (WNW) 08:55:36 437.470
AAUSAT CUBESAT 2 27 Sep 09:03:42 09:07:48 50° 99° (E) 09:11:51 437.432
TIGRISAT 27 Sep 09:11:46 09:14:19 16° 65° (ENE) 09:16:51 435.000
O/OREOS (USA 219) 27 Sep 09:14:53 09:16:36 12° 308° (NW) 09:18:19 437.305
CUBEBUG 2 27 Sep 09:17:19 09:21:35 71° 101° (E) 09:25:59 437.445
FUNcube-1 27 Sep 09:26:54 09:30:50 34° 97° (E) 09:34:51 145.935
GONETS M04 27 Sep 09:30:49 09:39:35 68° 280° (W) 09:48:27
BEESAT 2 27 Sep 09:33:42 09:36:29 18° 46° (NE) 09:39:17 435.950
UWE-3 27 Sep 09:37:05 09:41:24 78° 102° (ESE) 09:45:49 435.000/436.395/437.385
PRISM 27 Sep 09:38:25 09:41:58 27° 263° (W) 09:45:33 437.425
CINEMA 3 27 Sep 09:42:44 09:45:20 16° 293° (WNW) 09:47:59 145.822/145.860
HO-68 27 Sep 09:43:57 09:50:41 46° 294° (WNW) 09:57:25 435.675
COMPASS 1 27 Sep 09:47:22 09:51:18 38° 288° (WNW) 09:55:12 437.405
UNISAT 6 27 Sep 09:50:22 09:54:25 44° 73° (ENE) 09:58:29 437.425
Cosmos 2499 27 Sep 09:50:50 09:57:48 52° 282° (WNW) 10:04:41 435.465 / 435.565
Oscar 11 27 Sep 10:07:47 10:12:09 79° 285° (WNW) 10:16:31 145.826/435.025
ZACube-1 27 Sep 10:08:14 10:12:33 75° 285° (WNW) 10:16:58 437.345
CUTE 1.7 + AOD 2 27 Sep 10:13:55 10:15:10 11° 297° (WNW) 10:16:25 437.475
SEEDS 27 Sep 10:15:49 10:18:08 14° 295° (WNW) 10:20:26 437.485
BEESAT 3 27 Sep 10:16:30 10:20:30 89° 237° (WSW) 10:24:28 437.485
PHONESAT 2.4 27 Sep 10:20:04 10:21:54 15° 149° (SSE) 10:23:44 2401.200-2431.200
ANTELSAT 27 Sep 10:25:35 10:29:50 73° 258° (WSW) 10:34:06 437.575/2403.000
DELFI C3 27 Sep 10:30:12 10:34:14 75° 102° (ESE) 10:38:13 145.870
QB50P2 27 Sep 10:31:46 10:34:35 18° 66° (ENE) 10:37:25 145.880/145.840
POLYITAN 1 27 Sep 10:34:00 10:36:49 18° 66° (ENE) 10:39:37 437.675
HUMSAT D 27 Sep 10:35:17 10:39:17 40° 98° (E) 10:43:20 437.325/437.525
AAUSAT CUBESAT 2 27 Sep 10:40:41 10:42:50 14° 295° (WNW) 10:44:58 437.432
TIGRISAT 27 Sep 10:46:34 10:50:39 43° 261° (W) 10:54:43 435.000
JAS-2 27 Sep 10:55:22 11:01:02 33° 63° (ENE) 11:07:18 435.910
CUBEBUG 2 27 Sep 10:56:52 10:57:39 10° 297° (WNW) 10:58:28 437.445
FUNcube-1 27 Sep 11:03:38 11:06:52 21° 292° (WNW) 11:10:09 145.935
ESTCUBE 1 27 Sep 11:05:37 11:07:47 13° 91° (E) 11:09:57 437.505/2401.250
BEESAT 2 27 Sep 11:10:41 11:14:32 45° 243° (WSW) 11:18:22 435.950
DUCHIFAT 1 27 Sep 11:11:43 11:15:37 39° 72° (ENE) 11:19:31 145.980
QB50P1 27 Sep 11:12:56 11:16:58 47° 73° (ENE) 11:21:00 145.935-145.965
BUGSAT 1 27 Sep 11:18:05 11:20:58 19° 67° (ENE) 11:23:51 437.445
POPSAT HIP 1 27 Sep 11:26:14 11:30:24 66° 75° (ENE) 11:34:34 437.405
UNISAT 6 27 Sep 11:28:57 11:31:21 15° 268° (W) 11:33:46 437.425
GONETS M04 27 Sep 11:34:41 11:38:17 13° 302° (WNW) 11:41:56
NANOSAT C BR1 27 Sep 11:43:00 11:47:11 82° 256° (WSW) 11:51:24 145.865
AIST 2 27 Sep 11:50:00 11:53:00 19° 46° (NE) 11:56:00 435.215
PHONESAT 2.4 27 Sep 11:54:45 11:57:40 63° 165° (SSE) 12:00:36 2401.200-2431.200
SPROUT 27 Sep 11:58:12 11:59:57 12° 91° (E) 12:01:41 437.525
AISAT 27 Sep 11:59:15 12:02:54 25° 96° (E) 12:06:31 437.250
QB50P2 27 Sep 12:06:10 12:10:06 38° 262° (W) 12:14:02 145.880/145.840
POLYITAN 1 27 Sep 12:08:25 12:12:19 37° 262° (W) 12:16:15 437.675
UKube-1 27 Sep 12:10:29 12:12:54 15° 93° (E) 12:15:18 .
50 SAT 27 Sep 12:11:41 12:14:57 29° 97° (E) 12:18:10 437.505
HUMSAT D 27 Sep 12:11:47 12:14:35 17° 294° (WNW) 12:17:24 437.325/437.525
PCSat 27 Sep 12:21:11 12:24:22 15° 43° (NE) 12:27:33 145.827
Oscar 19 27 Sep 12:23:30 12:27:34 24° 65° (ENE) 12:31:39 437.125/150
DX 1 27 Sep 12:36:34 12:40:38 38° 99° (E) 12:44:39 434.975-435.025
JAS-2 27 Sep 12:39:43 12:45:46 45° 264° (W) 12:52:36 435.910
ESTCUBE 1 27 Sep 12:40:28 12:44:55 56° 287° (WNW) 12:49:20 437.505/2401.250
VELOX 1 27 Sep 12:42:22 12:46:47 74° 101° (E) 12:51:09 145.980
CUBEBUG 1 27 Sep 12:48:18 12:52:38 71° 285° (WNW) 12:56:54 437.445
DUCHIFAT 1 27 Sep 12:48:51 12:51:27 16° 267° (W) 12:54:04 145.980
QB50P1 27 Sep 12:50:51 12:52:59 14° 268° (W) 12:55:06 145.935-145.965
BUGSAT 1 27 Sep 12:52:22 12:56:06 33° 262° (W) 12:59:50 437.445
AUBIESAT-1 27 Sep 12:57:14 13:00:23 40° 105° (ESE) 13:03:32 437.475
Gurwin Techsat 1B 27 Sep 13:15:45 13:20:30 35° 68° (ENE) 13:25:16 435.225
AO-7 27 Sep 13:15:54 13:19:41 14° 47° (NE) 13:23:28 29.400- 29.500
TISAT 1 27 Sep 13:19:37 13:22:38 19° 94° (E) 13:25:39 437.305
Cosmos 2491 27 Sep 13:22:18 13:26:55 16° 76° (ENE) 13:31:32 435.465 / 435.565
YUBILEINY 27 Sep 13:23:55 13:31:41 34° 71° (ENE) 13:39:22 435.215
AIST 2 27 Sep 13:27:41 13:31:44 47° 243° (WSW) 13:35:44 435.215
PHONESAT 2.4 27 Sep 13:30:51 13:33:48 75° 2° (N) 13:36:46 2401.200-2431.200
SPROUT 27 Sep 13:32:02 13:36:11 53° 286° (WNW) 13:40:19 437.525
M-CUBED/EXP-1 PRIME 27 Sep 13:34:11 13:37:18 41° 292° (WNW) 13:40:23 437.505
AISAT 27 Sep 13:35:35 13:39:19 28° 291° (WNW) 13:43:01 437.250
UKube-1 27 Sep 13:45:02 13:49:10 46° 288° (WNW) 13:53:16 .
50 SAT 27 Sep 13:45:50 13:48:12 17° 293° (WNW) 13:50:34 437.505
Oscar 19 27 Sep 14:01:43 14:06:37 42° 262° (W) 14:11:33 437.125/150
PCSat 27 Sep 14:03:05 14:08:33 89° 57° (ENE) 14:13:58 145.827
DX 1 27 Sep 14:13:30 14:16:32 19° 294° (WNW) 14:19:33 434.975-435.025
VELOX 1 27 Sep 14:21:35 14:22:36 11° 299° (WNW) 14:23:38 145.980
SO-50 27 Sep 14:21:37 14:24:51 18° 110° (ESE) 14:28:02 436.795
AUBIESAT-1 27 Sep 14:33:53 14:34:30 10° 300° (WNW) 14:35:06 437.475
Cosmos 2504 27 Sep 14:37:01 14:43:47 36° 74° (ENE) 14:50:55 435.465 / 435.565
ITAMSAT 1 27 Sep 14:53:17 14:58:26 79° 75° (ENE) 15:03:39 435.822/435.867
TISAT 1 27 Sep 14:54:36 14:58:20 32° 289° (WNW) 15:02:03 437.305
Gurwin Techsat 1B 27 Sep 14:55:54 15:00:27 29° 264° (W) 15:05:01 435.225
ITUPSAT 1 27 Sep 14:57:08 15:01:42 42° 99° (E) 15:06:16 437.325
AO-7 27 Sep 15:02:40 15:10:49 63° 67° (ENE) 15:18:58 29.400- 29.500
PHONESAT 2.4 27 Sep 15:06:59 15:09:54 56° 197° (SSW) 15:12:49 2401.200-2431.200
SWISSCUBE 27 Sep 15:10:22 15:15:10 67° 102° (ESE) 15:19:57 437.505
Cosmos 2491 27 Sep 15:13:31 15:22:18 85° 95° (E) 15:31:11 435.465 / 435.565
MOZHAYETS 4 27 Sep 15:18:59 15:20:51 12° 90° (E) 15:22:43
YUBILEINY 27 Sep 15:20:25 15:28:41 50° 271° (W) 15:36:56 435.215
BEESAT 27 Sep 15:23:24 15:28:13 82° 103° (ESE) 15:33:01 436.000
KKS-1 27 Sep 15:47:18 15:49:45 15° 92° (E) 15:52:12 437.445
PCSat 27 Sep 15:49:41 15:51:06 11° 258° (WSW) 15:52:31 145.827
AIST 1 27 Sep 15:52:29 15:56:02 25° 75° (ENE) 15:59:33
BRITE-PL 27 Sep 15:59:57 16:02:24 13° 61° (ENE) 16:04:48 437.365/2234.400
SO-50 27 Sep 16:00:10 16:04:54 54° 305° (NW) 16:09:37 436.795
HORYU 2 27 Sep 16:04:44 16:07:44 18° 65° (ENE) 16:10:44 437.375
O/OREOS (USA 219) 27 Sep 16:05:02 16:07:37 15° 54° (NE) 16:10:10 437.305
STARS 27 Sep 16:21:56 16:24:42 16° 93° (E) 16:27:27 437.465
Cosmos 2504 27 Sep 16:30:18 16:37:08 41° 271° (W) 16:44:24 435.465 / 435.565
ITUPSAT 1 27 Sep 16:35:42 16:39:14 21° 295° (WNW) 16:42:45 437.325
ITAMSAT 1 27 Sep 16:36:54 16:38:29 11° 271° (W) 16:40:05 435.822/435.867
NOAA 15 27 Sep 16:37:42 16:40:12 14° 60° (ENE) 16:42:43 137.62
CUBESAT XI-V 27 Sep 16:38:13 16:39:17 11° 89° (E) 16:40:22 437.345
PHONESAT 2.4 27 Sep 16:44:06 16:45:37 13° 212° (SSW) 16:47:09 2401.200-2431.200
SWISSCUBE 27 Sep 16:50:00 16:52:22 14° 298° (WNW) 16:54:45 437.505
Cubesat XI-IV 27 Sep 16:51:57 16:54:47 15° 60° (ENE) 16:57:36 437.490
CUTE-I 27 Sep 16:52:11 16:55:03 15° 61° (ENE) 16:57:56 437.470
MOZHAYETS 4 27 Sep 16:53:48 16:58:24 63° 286° (WNW) 17:02:59
AO-7 27 Sep 16:57:10 17:04:01 28° 264° (W) 17:10:54 29.400- 29.500
BEESAT 27 Sep 17:03:50 17:05:18 11° 300° (WNW) 17:06:45 436.000
LilacSat-2 27 Sep 17:09:01 17:10:47 13° 66° (ENE) 17:12:33 437.200
Cosmos 2491 27 Sep 17:14:11 17:20:16 20° 296° (WNW) 17:26:26 435.465 / 435.565
KKS-1 27 Sep 17:22:18 17:26:35 48° 288° (WNW) 17:30:49 437.445
GOMX 1 27 Sep 17:26:48 17:31:38 34° 70° (ENE) 17:36:16 467.674
NOAA 18 27 Sep 17:27:58 17:32:28 27° 65° (ENE) 17:36:57 137.9125
AIST 1 27 Sep 17:30:04 17:33:31 24° 271° (W) 17:36:57
BRITE-PL 27 Sep 17:34:20 17:40:02 87° 77° (ENE) 17:45:41 437.365/2234.400
HORYU 2 27 Sep 17:39:49 17:43:58 41° 261° (W) 17:48:09 437.375
O/OREOS (USA 219) 27 Sep 17:42:54 17:47:27 62° 252° (WSW) 17:51:57 437.305
GONETS M04 27 Sep 17:50:00 17:51:52 11° 56° (NE) 17:53:43
DOVE 4 27 Sep 17:51:03 17:55:05 25° 69° (ENE) 17:58:56 437.250
STARS 27 Sep 17:57:07 18:01:14 42° 288° (WNW) 18:05:20 437.465
CUSAT 1 27 Sep 17:57:57 18:01:57 18° 79° (ENE) 18:06:25 437.405
CUBESAT XI-V 27 Sep 18:12:28 18:17:09 72° 285° (WNW) 18:21:48 437.345
NOAA 15 27 Sep 18:13:57 18:19:15 81° 256° (WSW) 18:24:37 137.62
HO-68 27 Sep 18:25:22 18:30:49 24° 59° (ENE) 18:36:15 435.675
Cubesat XI-IV 27 Sep 18:28:53 18:34:11 74° 257° (WSW) 18:39:32 437.490
CUTE-I 27 Sep 18:29:10 18:34:27 73° 257° (WSW) 18:39:47 437.470
LilacSat-2 27 Sep 18:41:08 18:44:42 41° 261° (W) 18:48:17 437.200
COMPASS 1 27 Sep 19:04:40 19:05:47 11° 63° (ENE) 19:06:54 437.405
GOMX 1 27 Sep 19:04:57 19:09:38 30° 264° (W) 19:14:11 467.674
CINEMA 3 27 Sep 19:05:24 19:09:27 34° 71° (ENE) 19:13:23 145.822/145.860
STRAND 1 27 Sep 19:07:34 19:11:17 20° 93° (E) 19:14:59 437.568
NOAA 18 27 Sep 19:07:48 19:12:55 40° 261° (W) 19:18:02 137.9125
RS-15 27 Sep 19:09:21 19:19:44 41° 106° (ESE) 19:30:34 29.354- 29.394
BRITE-PL 27 Sep 19:16:51 19:19:04 12° 272° (W) 19:21:17 437.365/2234.400
DANDE 27 Sep 19:24:07 19:28:31 30° 85° (E) 19:34:04 436.750
CUTE 1.7 + AOD 2 27 Sep 19:27:21 19:31:19 41° 73° (ENE) 19:35:21 437.475
DOVE 4 27 Sep 19:27:57 19:32:36 36° 263° (W) 19:37:02 437.250
CANX-2 27 Sep 19:28:25 19:32:30 50° 74° (ENE) 19:36:38 2200.000
SEEDS 27 Sep 19:29:42 19:33:23 30° 70° (ENE) 19:37:06 437.485
CUSAT 1 27 Sep 19:36:38 19:42:43 78° 281° (W) 19:50:20 437.405
Cosmos 2499 27 Sep 19:41:03 19:48:21 50° 78° (ENE) 19:56:12 435.465 / 435.565
GONETS M04 27 Sep 19:42:07 19:50:50 60° 78° (ENE) 19:59:26
AAUSAT CUBESAT 2 27 Sep 19:53:12 19:56:49 29° 70° (ENE) 20:00:27 437.432
AO-85 27 Sep 20:02:12 20:05:38 18° 110° (ESE) 20:08:59 145.980
HO-68 27 Sep 20:10:47 20:17:54 68° 257° (WSW) 20:25:04 435.675
CUBEBUG 2 27 Sep 20:14:41 20:18:47 51° 74° (ENE) 20:22:49 437.445
FUNcube-1 27 Sep 20:22:14 20:25:30 23° 69° (ENE) 20:28:47 145.935
ISS 27 Sep 20:32:01 20:35:16 79° 142° (SE) 20:38:32 145.825
UWE-3 27 Sep 20:33:20 20:37:24 54° 74° (ENE) 20:41:27 435.000/436.395/437.385
COMPASS 1 27 Sep 20:36:37 20:40:45 65° 259° (W) 20:44:57 437.405
CINEMA 3 27 Sep 20:43:20 20:46:39 20° 266° (W) 20:49:53 145.822/145.860
STRAND 1 27 Sep 20:45:44 20:50:40 47° 289° (WNW) 20:55:35 437.568
Oscar 11 27 Sep 21:01:23 21:05:39 70° 75° (ENE) 21:09:58 145.826/435.025
ZACube-1 27 Sep 21:03:08 21:07:16 75° 76° (ENE) 21:11:25 437.345
CUTE 1.7 + AOD 2 27 Sep 21:04:49 21:07:21 16° 268° (W) 21:09:56 437.475
SEEDS 27 Sep 21:05:54 21:09:06 21° 266° (W) 21:12:19 437.485
DANDE 27 Sep 21:06:22 21:11:06 35° 291° (WNW) 21:17:10 436.750
CANX-2 27 Sep 21:06:40 21:08:39 13° 269° (W) 21:10:37 2200.000
DELFI C3 27 Sep 21:15:04 21:18:45 37° 72° (ENE) 21:22:28 145.870
PRISM 27 Sep 21:20:01 21:23:56 40° 99° (E) 21:27:47 437.425
RS-15 27 Sep 21:20:10 21:31:39 61° 309° (NW) 21:43:47 29.354- 29.394
CUSAT 1 27 Sep 21:22:43 21:26:18 15° 303° (WNW) 21:30:09 437.405
HUMSAT D 27 Sep 21:26:10 21:29:29 24° 69° (ENE) 21:32:50 437.325/437.525
AAUSAT CUBESAT 2 27 Sep 21:29:07 21:32:17 21° 266° (W) 21:35:30 437.432
Cosmos 2499 27 Sep 21:34:43 21:41:08 31° 274° (W) 21:47:57 435.465 / 435.565
GONETS M04 27 Sep 21:39:55 21:47:00 28° 278° (W) 21:54:03
AO-85 27 Sep 21:40:35 21:45:44 60° 304° (NW) 21:50:35 145.980
CUBEBUG 2 27 Sep 21:54:03 21:55:42 12° 269° (W) 21:57:19 437.445
FUNcube-1 27 Sep 21:58:08 22:01:38 26° 264° (W) 22:05:08 145.935
ESTCUBE 1 27 Sep 22:05:13 22:07:03 12° 62° (ENE) 22:08:52 437.505/2401.250
ISS 27 Sep 22:09:41 22:12:05 19° 339° (NNW) 22:14:29 145.825
UWE-3 27 Sep 22:12:56 22:14:11 11° 269° (W) 22:15:26 435.000/436.395/437.385
ANTELSAT 27 Sep 22:18:07 22:21:42 24° 95° (E) 22:25:20 437.575/2403.000
TIGRISAT 27 Sep 22:38:18 22:42:23 37° 98° (E) 22:46:33 435.000
M-CUBED/EXP-1 PRIME 27 Sep 22:46:31 22:48:57 16° 63° (ENE) 22:51:19 437.505
50 SAT 27 Sep 22:49:08 22:50:46 13° 66° (ENE) 22:52:24 437.505
DELFI C3 27 Sep 22:51:17 22:53:43 16° 267° (W) 22:56:11 145.870
SO-50 27 Sep 22:53:09 22:55:55 16° 41° (NE) 22:58:40 436.795
AISAT 27 Sep 22:56:05 22:59:29 22° 67° (ENE) 23:02:53 437.250
PRISM 27 Sep 22:56:18 22:58:53 16° 295° (WNW) 23:01:28 437.425
HUMSAT D 27 Sep 23:01:40 23:05:01 24° 265° (W) 23:08:24 437.325/437.525
UKube-1 27 Sep 23:05:12 23:07:02 12° 63° (ENE) 23:08:51 .
POPSAT HIP 1 27 Sep 23:14:04 23:15:18 11° 91° (E) 23:16:32 437.405
UNISAT 6 27 Sep 23:18:41 23:23:05 72° 284° (WNW) 23:27:34 437.425
AO-85 27 Sep 23:25:52 23:27:05 11° 322° (NW) 23:28:17 145.980
NANOSAT C BR1 27 Sep 23:29:11 23:31:52 16° 93° (E) 23:34:32 145.865
DX 1 27 Sep 23:31:20 23:35:10 31° 69° (ENE) 23:39:01 434.975-435.025
RS-15 27 Sep 23:38:10 23:47:30 25° 339° (NNW) 23:57:04 29.354- 29.394
VELOX 1 27 Sep 23:38:32 23:42:55 59° 73° (ENE) 23:47:18 145.980
ESTCUBE 1 27 Sep 23:38:45 23:43:15 68° 258° (WSW) 23:47:48 437.505/2401.250
AUBIESAT-1 27 Sep 23:41:53 23:45:52 52° 69° (ENE) 23:49:34 437.475
CUBEBUG 1 27 Sep 23:42:57 23:47:22 85° 76° (ENE) 23:51:48 437.445
ISS 27 Sep 23:48:50 23:49:36 11° 359° (N) 23:50:23 145.825
JAS-2 27 Sep 23:49:41 23:56:41 34° 93° (E) 00:03:21 435.910
QB50P2 27 Sep 23:51:35 23:55:26 34° 98° (E) 23:59:17 145.880/145.840
POLYITAN 1 27 Sep 23:53:47 23:57:39 34° 98° (E) 00:01:29 437.675
ANTELSAT 27 Sep 23:54:33 23:58:24 30° 290° (WNW) 00:02:18 437.575/2403.000
BEESAT 3 28 Sep 00:07:18 00:09:54 17° 111° (ESE) 00:12:31 437.485
TISAT 1 28 Sep 00:11:28 00:13:40 14° 65° (ENE) 00:15:53 437.305
TIGRISAT 28 Sep 00:15:39 00:18:50 20° 293° (WNW) 00:22:03 435.000
M-CUBED/EXP-1 PRIME 28 Sep 00:19:13 00:23:13 42° 255° (WSW) 00:26:57 437.505
50 SAT 28 Sep 00:20:28 00:23:53 40° 261° (W) 00:27:21 437.505
SPROUT 28 Sep 00:24:15 00:28:30 80° 256° (WSW) 00:32:48 437.525
DUCHIFAT 1 28 Sep 00:31:37 00:35:49 82° 100° (E) 00:40:01 145.980
AISAT 28 Sep 00:31:41 00:35:44 34° 262° (W) 00:39:48 437.250
SO-50 28 Sep 00:32:23 00:36:57 74° 240° (WSW) 00:41:22 436.795
QB50P1 28 Sep 00:33:41 00:37:54 81° 285° (WNW) 00:42:07 145.935-145.965
BUGSAT 1 28 Sep 00:34:34 00:38:12 32° 98° (E) 00:41:50 437.445
UKube-1 28 Sep 00:38:16 00:42:32 61° 259° (W) 00:46:50 .
POPSAT HIP 1 28 Sep 00:47:17 00:51:25 57° 286° (WNW) 00:55:33 437.405
BEESAT 2 28 Sep 01:01:36 01:05:10 34° 115° (ESE) 01:08:47 435.950
NANOSAT C BR1 28 Sep 01:03:50 01:07:44 38° 288° (WNW) 01:11:38 145.865
DX 1 28 Sep 01:07:53 01:11:21 23° 265° (W) 01:14:49 434.975-435.025
VELOX 1 28 Sep 01:17:54 01:19:43 12° 269° (W) 01:21:31 145.980
AUBIESAT-1 28 Sep 01:19:05 01:20:28 11° 262° (W) 01:21:50 437.475
ISS 28 Sep 01:24:52 01:27:09 17° 20° (NNE) 01:29:26 145.825
Cosmos 2491 28 Sep 01:25:12 01:33:26 41° 73° (ENE) 01:41:35 435.465 / 435.565
QB50P2 28 Sep 01:27:57 01:31:00 20° 293° (WNW) 01:34:03 145.880/145.840
POLYITAN 1 28 Sep 01:30:10 01:33:12 20° 293° (WNW) 01:36:15 437.675
Gurwin Techsat 1B 28 Sep 01:34:01 01:36:45 14° 90° (E) 01:39:27 435.225
JAS-2 28 Sep 01:34:17 01:41:50 51° 291° (WNW) 01:49:01 435.910
BEESAT 3 28 Sep 01:43:36 01:47:15 37° 307° (NW) 01:50:57 437.485
TISAT 1 28 Sep 01:44:50 01:48:54 49° 260° (W) 01:52:58 437.305
RS-15 28 Sep 01:56:58 02:06:07 23° 16° (NNE) 02:15:17 29.354- 29.394
ITUPSAT 1 28 Sep 02:03:01 02:07:32 45° 71° (ENE) 02:12:06 437.325
BUGSAT 1 28 Sep 02:10:34 02:13:20 18° 293° (WNW) 02:16:07 437.445
Oscar 19 28 Sep 02:13:38 02:18:49 73° 103° (ESE) 02:23:55 437.125/150
SWISSCUBE 28 Sep 02:15:52 02:20:35 71° 74° (ENE) 02:25:21 437.505
MOZHAYETS 4 28 Sep 02:21:04 02:22:34 12° 62° (ENE) 02:24:06
YUBILEINY 28 Sep 02:23:53 02:31:51 41° 87° (E) 02:39:47 435.215
BEESAT 28 Sep 02:28:49 02:33:33 86° 78° (ENE) 02:38:21 436.000
BEESAT 2 28 Sep 02:39:58 02:43:03 21° 312° (NW) 02:46:11 435.950
KKS-1 28 Sep 02:45:19 02:47:29 14° 63° (ENE) 02:49:40 437.445
ISS 28 Sep 03:00:45 03:04:03 85° 41° (NE) 03:07:20 145.825
PCSat 28 Sep 03:04:28 03:06:27 12° 102° (ESE) 03:08:26 145.827
AO-7 28 Sep 03:06:35 03:12:14 20° 92° (E) 03:17:51 29.400- 29.500
ITAMSAT 1 28 Sep 03:07:16 03:11:48 29° 96° (E) 03:16:20 435.822/435.867
Gurwin Techsat 1B 28 Sep 03:11:52 03:17:10 69° 286° (WNW) 03:22:26 435.225
Cosmos 2504 28 Sep 03:15:45 03:21:54 29° 86° (E) 03:27:54 435.465 / 435.565
STARS 28 Sep 03:18:32 03:20:54 14° 64° (ENE) 03:23:16 437.465
Cosmos 2491 28 Sep 03:22:06 03:30:14 43° 273° (W) 03:38:20 435.465 / 435.565
JAS-2 28 Sep 03:23:53 03:24:59 10° 311° (NW) 03:26:05 435.910
AIST 2 28 Sep 03:24:13 03:28:03 40° 116° (ESE) 03:31:56 435.215
CUBESAT XI-V 28 Sep 03:41:19 03:42:32 11° 61° (ENE) 03:43:45 437.345
ITUPSAT 1 28 Sep 03:42:21 03:45:34 18° 267° (W) 03:48:50 437.325
MOZHAYETS 4 28 Sep 03:54:32 03:59:05 74° 258° (WSW) 04:03:42
Oscar 19 28 Sep 03:54:51 03:57:28 14° 299° (WNW) 04:00:06 437.125/150
SWISSCUBE 28 Sep 03:57:24 03:58:51 11° 270° (W) 04:00:19 437.505
RS-15 28 Sep 04:10:36 04:22:37 52° 47° (NE) 04:34:23 29.354- 29.394
KKS-1 28 Sep 04:19:09 04:23:32 59° 259° (WSW) 04:27:57 437.445
YUBILEINY 28 Sep 04:20:18 04:28:31 43° 286° (WNW) 04:36:46 435.215
AIST 1 28 Sep 04:21:56 04:24:35 16° 86° (E) 04:27:14
CUSAT 1 28 Sep 04:32:19 04:36:30 15° 58° (ENE) 04:40:22 437.405
AO-85 28 Sep 04:34:56 04:36:31 12° 39° (NE) 04:38:05 145.980
PCSat 28 Sep 04:43:38 04:49:03 84° 298° (WNW) 04:54:31 145.827
ITAMSAT 1 28 Sep 04:46:36 04:51:14 33° 292° (WNW) 04:55:51 435.822/435.867
STARS 28 Sep 04:52:31 04:56:48 52° 259° (W) 05:01:06 437.465
AO-7 28 Sep 04:57:30 05:05:50 82° 290° (WNW) 05:14:08 29.400- 29.500
AIST 2 28 Sep 05:03:35 05:06:41 20° 313° (NW) 05:09:49 435.215
Cosmos 2504 28 Sep 05:07:52 05:14:57 46° 283° (WNW) 05:21:49 435.465 / 435.565
CUBESAT XI-V 28 Sep 05:14:30 05:19:12 82° 259° (WSW) 05:23:56 437.345
HORYU 2 28 Sep 05:31:10 05:35:19 37° 98° (E) 05:39:27 437.375
BRITE-PL 28 Sep 05:41:25 05:45:30 28° 94° (E) 05:49:18 437.365/2234.400
NOAA 18 28 Sep 05:53:11 05:54:12 10° 89° (E) 05:55:12 137.9125
AIST 1 28 Sep 05:57:40 06:01:48 40° 282° (WNW) 06:05:57
DANDE 28 Sep 06:01:49 06:09:19 35° 69° (ENE) 06:16:21 436.750
CUSAT 1 28 Sep 06:12:14 06:20:02 78° 80° (E) 06:26:26 437.405
AO-85 28 Sep 06:13:29 06:17:37 84° 240° (WSW) 06:21:30 145.980
LilacSat-2 28 Sep 06:15:30 06:18:25 20° 95° (E) 06:21:19 437.200
O/OREOS (USA 219) 28 Sep 06:16:51 06:19:42 17° 99° (E) 06:22:34 437.305
STRAND 1 28 Sep 06:22:38 06:26:51 27° 66° (ENE) 06:31:05 437.568
RS-15 28 Sep 06:23:29 06:35:13 53° 250° (WSW) 06:46:38 29.354- 29.394
NOAA 15 28 Sep 06:30:05 06:35:04 40° 99° (E) 06:39:59 137.62
PCSat 28 Sep 06:30:18 06:33:17 15° 318° (NW) 06:36:17 145.827
Cubesat XI-IV 28 Sep 06:46:54 06:52:04 47° 99° (E) 06:57:13 437.490
CUTE-I 28 Sep 06:46:58 06:52:08 48° 99° (E) 06:57:18 437.470
AO-7 28 Sep 06:52:06 06:57:23 19° 309° (NW) 07:02:40 29.400- 29.500
GONETS M04 28 Sep 06:52:22 06:55:13 12° 74° (ENE) 06:58:03
GOMX 1 28 Sep 07:07:20 07:11:46 84° 281° (W) 07:15:56 467.674
HORYU 2 28 Sep 07:08:22 07:11:36 20° 294° (WNW) 07:14:51 437.375
BRITE-PL 28 Sep 07:19:53 07:23:54 27° 293° (WNW) 07:27:41 437.365/2234.400
DOVE 4 28 Sep 07:27:22 07:31:32 64° 100° (E) 07:35:38 437.250
NOAA 18 28 Sep 07:30:01 07:35:31 90° 299° (WNW) 07:41:01 137.9125
HO-68 28 Sep 07:40:07 07:45:47 25° 94° (E) 07:51:24 435.675
DANDE 28 Sep 07:44:17 07:52:25 55° 268° (W) 07:59:54 436.750
LilacSat-2 28 Sep 07:49:28 07:52:40 26° 290° (WNW) 07:55:54 437.200
O/OREOS (USA 219) 28 Sep 07:54:19 07:58:41 45° 296° (WNW) 08:03:07 437.305
CUSAT 1 28 Sep 07:56:02 08:00:52 19° 281° (W) 08:05:14 437.405
STRAND 1 28 Sep 08:01:13 08:05:51 35° 262° (W) 08:10:31 437.568
CUBEBUG 2 28 Sep 08:08:01 08:09:24 11° 91° (E) 08:10:48 437.445
PRISM 28 Sep 08:08:44 08:12:15 27° 69° (ENE) 08:15:46 437.425
